Omaha, NE

3:58 PM CDT on March 25, 2017 (GMT -0500)
Eppley Airfield

Weather History for KOMA - December, 2013

Change the Weather History Date:

Tuesday, December 31, 2013

  Actual Average Record
Temperature  
Mean Temperature 22 °F 24 °F  
Max Temperature 35 °F 33 °F 60 °F (1891)
Min Temperature 8 °F 14 °F -12 °F (1884)
Degree Days  
Heating Degree Days 43 42  
Month to date heating degree days 1318 1209  
Since 1 July heating degree days 2544 2479  
Cooling Degree Days 0 0  
Month to date cooling degree days 0 0  
Year to date cooling degree days 1294 1113  
Moisture  
Dew Point 7 °F    
Average Humidity 67    
Maximum Humidity 83    
Minimum Humidity 51    
Precipitation  
Precipitation 0.00 in 0.02 in 1.59 in (1931)
Month to date precipitation 0.20 1.04  
Year to date precipitation 29.00 30.62  
Snow  
Snow 0.00 in 0.20 in - ()
Month to date snowfall 3.1 6.2  
Since 1 July snowfall 3.5 9.0  
Snow Depth 0.00 in    
Sea Level Pressure  
Sea Level Pressure 30.23 in    
Wind  
Wind Speed 8 mph (ENE)    
Max Wind Speed 24 mph    
Max Gust Speed 30 mph    
Visibility 10 miles    
Events      
T = Trace of Precipitation, MM = Missing Value Source: NWS Daily Summary

Daily Weather History Graph

Daily Weather History Graph

Search for Another Location

Airport or City:

Trip Planner

Search our weather history database for the weather conditions in past years. The results will help you decide how hot, cold, wet, or windy it might be!

Date:

Astronomy

Dec. 31, 2013 Rise Set
Actual Time 7:49 AM CST 5:04 PM CST
Civil Twilight 7:18 AM CST 5:35 PM CST
Nautical Twilight 6:43 AM CST 6:10 PM CST
Astronomical Twilight 6:09 AM CST 6:43 PM CST
Moon 6:42 AM CST (12/31) 4:42 PM CST (12/31)
Length of Visible Light 10h 17m
Length of Day
9h 15m
Waning Crescent, 1% of the Moon is Illuminated
Dec 31
Waning Crescent
Jan 1
New
Jan 7
First Quarter
Jan 15
Full
Jan 23
Last Quarter

Hourly Weather History & Observations

Time (CST) Temp. Windchill Dew Point Humidity Pressure Visibility Wind Dir Wind Speed Gust Speed Precip Events Conditions
12:52 AM 9.0 °F -0.9 °F 5.0 °F 84% 30.34 in 10.0 mi NNW 5.8 mph - N/A   Clear
1:52 AM 10.9 °F 0.2 °F 6.1 °F 81% 30.34 in 10.0 mi NW 6.9 mph - N/A   Clear
2:52 AM 10.9 °F 4.7 °F 5.0 °F 77% 30.32 in 10.0 mi West 3.5 mph - N/A   Mostly Cloudy
3:52 AM 10.9 °F 0.2 °F 5.0 °F 77% 30.34 in 10.0 mi WSW 6.9 mph - N/A   Partly Cloudy
4:52 AM 10.9 °F - 3.9 °F 73% 30.33 in 10.0 mi Calm Calm - N/A   Clear
5:52 AM 10.0 °F 3.6 °F 3.9 °F 76% 30.31 in 10.0 mi NE 3.5 mph - N/A   Clear
6:52 AM 9.0 °F 2.4 °F 3.9 °F 80% 30.29 in 10.0 mi East 3.5 mph - N/A   Partly Cloudy
7:52 AM 9.0 °F 2.4 °F 3.9 °F 80% 30.27 in 10.0 mi ESE 3.5 mph - N/A   Scattered Clouds
8:52 AM 12.0 °F 0.5 °F 6.1 °F 77% 30.25 in 10.0 mi SE 8.1 mph - N/A   Mostly Cloudy
9:52 AM 17.1 °F 2.5 °F 9.0 °F 71% 30.21 in 10.0 mi SE 15.0 mph - N/A   Mostly Cloudy
10:52 AM 21.0 °F 9.3 °F 10.0 °F 63% 30.19 in 10.0 mi ESE 11.5 mph - N/A   Scattered Clouds
11:52 AM 26.1 °F 15.0 °F 12.9 °F 58% 30.14 in 10.0 mi SE 12.7 mph - N/A   Scattered Clouds
12:52 PM 28.9 °F 18.6 °F 15.1 °F 56% 30.10 in 10.0 mi SE 12.7 mph - N/A   Scattered Clouds
1:52 PM 32.0 °F - 17.1 °F 54% 30.09 in 10.0 mi Calm Calm - N/A   Scattered Clouds
2:52 PM 34.0 °F 28.0 °F 17.1 °F 50% 30.08 in 10.0 mi ENE 6.9 mph - N/A   Scattered Clouds
3:52 PM 34.0 °F 28.0 °F 18.0 °F 52% 30.12 in 10.0 mi NE 6.9 mph - N/A   Partly Cloudy
4:52 PM 19.9 °F 5.7 °F 8.1 °F 60% 30.18 in 10.0 mi NNE 16.1 mph - N/A   Partly Cloudy
5:52 PM 15.1 °F 0.5 °F 5.0 °F 64% 30.22 in 10.0 mi NNE 13.8 mph - N/A   Mostly Cloudy
6:52 PM 15.1 °F 2.5 °F 5.0 °F 64% 30.24 in 10.0 mi NE 10.4 mph - N/A   Overcast
7:52 PM 12.9 °F -1.6 °F 5.0 °F 71% 30.25 in 10.0 mi NNE 12.7 mph - N/A   Scattered Clouds
8:52 PM 12.9 °F 1.6 °F 5.0 °F 71% 30.25 in 10.0 mi ENE 8.1 mph - N/A   Overcast
9:52 PM 12.0 °F -1.3 °F 3.9 °F 70% 30.25 in 10.0 mi NNE 10.4 mph - N/A   Overcast
10:52 PM 10.9 °F 0.2 °F 3.9 °F 73% 30.23 in 10.0 mi NE 6.9 mph - N/A   Mostly Cloudy
11:52 PM 10.0 °F -4.5 °F 3.0 °F 73% 30.24 in 10.0 mi NNE 11.5 mph - N/A   Mostly Cloudy